Location: Howard City Library
(37.4684°N, 96.2639°W)
Time: 04:54:38
(UTC+00:00)

Cosmos 2016 Rocket - Pass Details

Date: 18 February 2020
Orbit: 948 x 999 km, 83.0° (Epoch: 29 March)

Event Time Altitude Azimuth Distance (km) Brightness Sun altitude
Rises 00:39:59 0° 175° (S) 3,606 7.0 -7.4°
Reaches altitude 10° 00:42:29 10° 172° (S) 2,662 6.3 -7.9°
Maximum altitude 00:48:27 62° 93° (E) 1,060 4.0 -9.0°
Drops below altitude 10° 00:54:28 10° 14° (NNE) 2,681 6.1 -10.2°
Sets 00:57:00 0° 11° (N) 3,634 6.8 -10.7°
